When you browse on this site, cookies collect data to enhance your experience and personalize the content and advertising you see.
Visit our Privacy Policy to learn more. By continuing to use the site, you agree to this use of cookies and data.
  • In Romania
  • List of Countries
  • For 7 days
  • Water Temperature
  • Satellite Maps
  • Weather Map
  • Weather Widgets
  • user-avatar
    Login

    Hourly Weather Las Tablas

    Today, 26 May, Sunday

    Time Temperature Precipitation Wind Pressure Humidity
    00:00 +28°C° 0 mm 1 mps 752 mmHg 87%
    01:00 +28°C° 0 mm 1 mps 752 mmHg 87%
    02:00 +28°C° 0 mm 1 mps 752 mmHg 88%
    03:00 +28°C° 0 mm 1 mps 751 mmHg 88%
    04:00 +28°C° 0 mm 1 mps 751 mmHg 88%
    05:00 +28°C° 0 mm 1 mps 751 mmHg 87%
    06:00 +28°C° 0 mm 1 mps 751 mmHg 86%
    07:00 +28°C° 0 mm 1 mps 752 mmHg 85%
    08:00 +29°C° 0 mm 1 mps 752 mmHg 80%
    09:00 +30°C° 0 mm 1 mps 752 mmHg 75%
    10:00 +31°C° 0 mm 1 mps 753 mmHg 70%
    11:00 +31°C° 1.3 mm 1 mps 752 mmHg 69%
    12:00 +32°C° 1.3 mm 1 mps 752 mmHg 69%
    13:00 +32°C° 1.3 mm 2 mps 752 mmHg 68%
    14:00 +32°C° 3.6 mm 2 mps 751 mmHg 71%
    15:00 +31°C° 3.6 mm 2 mps 751 mmHg 73%
    16:00 +31°C° 3.6 mm 3 mps 750 mmHg 76%
    17:00 +30°C° 1.5 mm 2 mps 750 mmHg 79%
    18:00 +30°C° 1.5 mm 2 mps 751 mmHg 81%
    19:00 +29°C° 1.5 mm 1 mps 751 mmHg 83%
    20:00 +29°C° 0.3 mm 1 mps 751 mmHg 83%
    21:00 +29°C° 0.3 mm 1 mps 752 mmHg 83%
    22:00 +29°C° 0.3 mm 1 mps 752 mmHg 83%
    23:00 +28°C° 0.2 mm 1 mps 752 mmHg 83%

    Tomorrow, 27 May, Monday

    Time Temperature Precipitation Wind Pressure Humidity
    00:00 +28°C° 0.2 mm 1 mps 752 mmHg 84%
    01:00 +28°C° 0.2 mm 2 mps 752 mmHg 85%
    02:00 +28°C° 0.9 mm 2 mps 752 mmHg 85%
    03:00 +28°C° 0.9 mm 2 mps 752 mmHg 85%
    04:00 +28°C° 0.9 mm 2 mps 751 mmHg 86%
    05:00 +28°C° 0.8 mm 1 mps 751 mmHg 85%
    06:00 +28°C° 0.8 mm 1 mps 752 mmHg 84%
    07:00 +28°C° 0.8 mm 1 mps 752 mmHg 83%
    08:00 +29°C° 0 mm 1 mps 752 mmHg 79%
    09:00 +30°C° 0 mm 1 mps 753 mmHg 75%
    10:00 +28°C° 0 mm 0 mps 753 mmHg 71%
    11:00 +31°C° 0.6 mm 1 mps 753 mmHg 70%
    12:00 +31°C° 0.6 mm 1 mps 752 mmHg 68%
    13:00 +32°C° 0.6 mm 2 mps 752 mmHg 67%
    14:00 +32°C° 2.3 mm 2 mps 751 mmHg 69%
    15:00 +31°C° 2.3 mm 2 mps 751 mmHg 71%
    16:00 +31°C° 2.3 mm 3 mps 750 mmHg 73%
    17:00 +30°C° 2 mm 2 mps 750 mmHg 76%
    18:00 +29°C° 2 mm 2 mps 751 mmHg 80%
    19:00 +29°C° 2 mm 2 mps 751 mmHg 84%
    20:00 +28°C° 0.6 mm 2 mps 752 mmHg 84%
    21:00 +28°C° 0.6 mm 2 mps 752 mmHg 85%
    22:00 +28°C° 0.6 mm 1 mps 753 mmHg 85%
    23:00 +28°C° 0.2 mm 1 mps 753 mmHg 86%

    Day after tomorrow, 28 May, Tuesday

    Time Temperature Precipitation Wind Pressure Humidity
    00:00 +28°C° 0.2 mm 2 mps 752 mmHg 87%
    01:00 +28°C° 0.2 mm 2 mps 752 mmHg 88%
    02:00 +27°C° 0.3 mm 1 mps 751 mmHg 89%
    03:00 +27°C° 0.3 mm 1 mps 751 mmHg 89%
    04:00 +27°C° 0.3 mm 1 mps 750 mmHg 90%
    05:00 +27°C° 0.1 mm 1 mps 751 mmHg 89%
    06:00 +27°C° 0.1 mm 1 mps 751 mmHg 88%
    07:00 +28°C° 0.1 mm 1 mps 751 mmHg 88%
    08:00 +28°C° 1.4 mm 1 mps 751 mmHg 84%
    09:00 +29°C° 1.4 mm 1 mps 752 mmHg 79%
    10:00 +30°C° 1.4 mm 1 mps 752 mmHg 75%
    11:00 +30°C° 2.8 mm 2 mps 752 mmHg 77%
    12:00 +29°C° 2.8 mm 2 mps 752 mmHg 79%
    13:00 +29°C° 2.8 mm 3 mps 751 mmHg 82%
    14:00 +28°C° 5.3 mm 3 mps 751 mmHg 84%
    15:00 +28°C° 5.3 mm 4 mps 751 mmHg 87%
    16:00 +27°C° 5.3 mm 5 mps 750 mmHg 89%
    17:00 +27°C° 3.1 mm 4 mps 751 mmHg 89%
    18:00 +27°C° 3.1 mm 3 mps 751 mmHg 89%
    19:00 +27°C° 3.1 mm 3 mps 751 mmHg 90%
    20:00 +27°C° 0.1 mm 2 mps 751 mmHg 89%
    21:00 +27°C° 0.1 mm 2 mps 752 mmHg 89%
    22:00 +27°C° 0.1 mm 2 mps 752 mmHg 89%
    23:00 +27°C° 0 mm 2 mps 752 mmHg 89%

    29 May, Wednesday

    Time Temperature Precipitation Wind Pressure Humidity
    00:00 +27°C° 0 mm 2 mps 752 mmHg 89%
    01:00 +27°C° 0 mm 3 mps 752 mmHg 89%
    02:00 +27°C° 0 mm 2 mps 751 mmHg 89%
    03:00 +27°C° 0 mm 1 mps 751 mmHg 89%
    04:00 +27°C° 0 mm 1 mps 750 mmHg 89%
    05:00 +27°C° 0 mm 1 mps 751 mmHg 88%
    06:00 +27°C° 0 mm 1 mps 751 mmHg 88%
    07:00 +27°C° 0 mm 1 mps 752 mmHg 88%
    08:00 +28°C° 0.2 mm 1 mps 752 mmHg 83%
    09:00 +29°C° 0.2 mm 1 mps 753 mmHg 78%
    10:00 +30°C° 0.2 mm 2 mps 753 mmHg 73%
    11:00 +31°C° 1.1 mm 2 mps 753 mmHg 71%
    12:00 +31°C° 1.1 mm 3 mps 752 mmHg 69%
    13:00 +33°C° 1.1 mm 3 mps 752 mmHg 66%
    14:00 +31°C° 1.8 mm 3 mps 751 mmHg 70%
    15:00 +30°C° 1.8 mm 3 mps 751 mmHg 74%
    16:00 +29°C° 1.8 mm 3 mps 751 mmHg 77%
    17:00 +29°C° 1.1 mm 3 mps 751 mmHg 80%
    18:00 +28°C° 1.1 mm 3 mps 751 mmHg 83%
    19:00 +28°C° 1.1 mm 2 mps 752 mmHg 85%
    20:00 +28°C° 0.3 mm 2 mps 752 mmHg 86%
    21:00 +27°C° 0.3 mm 2 mps 753 mmHg 87%
    22:00 +27°C° 0.3 mm 2 mps 753 mmHg 89%
    23:00 +27°C° 0.5 mm 2 mps 753 mmHg 89%

    30 May, Thursday

    Time Temperature Precipitation Wind Pressure Humidity
    00:00 +27°C° 0.5 mm 1 mps 752 mmHg 90%
    01:00 +27°C° 0.5 mm 1 mps 752 mmHg 90%
    02:00 +27°C° 2.6 mm 1 mps 752 mmHg 91%
    03:00 +27°C° 2.6 mm 1 mps 751 mmHg 91%
    04:00 +27°C° 2.6 mm 1 mps 751 mmHg 91%
    05:00 +27°C° 5.9 mm 1 mps 751 mmHg 91%
    06:00 +27°C° 5.9 mm 1 mps 752 mmHg 92%
    07:00 +27°C° 5.9 mm 1 mps 752 mmHg 92%
    08:00 +27°C° 3.4 mm 2 mps 753 mmHg 91%
    09:00 +27°C° 3.4 mm 2 mps 753 mmHg 90%
    10:00 +27°C° 3.4 mm 3 mps 753 mmHg 89%
    11:00 +27°C° 0.6 mm 3 mps 753 mmHg 88%
    12:00 +27°C° 0.6 mm 3 mps 752 mmHg 87%
    13:00 +27°C° 0.6 mm 3 mps 752 mmHg 86%
    14:00 +27°C° 1.6 mm 3 mps 752 mmHg 87%
    15:00 +27°C° 1.6 mm 3 mps 751 mmHg 88%
    16:00 +27°C° 1.6 mm 2 mps 751 mmHg 90%
    17:00 +27°C° 0.8 mm 3 mps 751 mmHg 89%
    18:00 +27°C° 0.8 mm 3 mps 752 mmHg 89%
    19:00 +27°C° 0.8 mm 3 mps 752 mmHg 89%
    20:00 +27°C° 0.3 mm 2 mps 752 mmHg 89%
    21:00 +27°C° 0.3 mm 2 mps 753 mmHg 89%
    22:00 +27°C° 0.3 mm 1 mps 753 mmHg 89%
    23:00 +26°C° 0.1 mm 2 mps 753 mmHg 89%

    31 May, Friday

    Time Temperature Precipitation Wind Pressure Humidity
    00:00 +26°C° 0.1 mm 2 mps 753 mmHg 89%
    01:00 +26°C° 0.1 mm 2 mps 752 mmHg 89%
    02:00 +26°C° 0 mm 3 mps 752 mmHg 89%
    03:00 +26°C° 0 mm 3 mps 751 mmHg 89%
    04:00 +26°C° 0 mm 3 mps 751 mmHg 88%
    05:00 +26°C° 0 mm 3 mps 751 mmHg 88%
    06:00 +26°C° 0 mm 3 mps 752 mmHg 87%
    07:00 +26°C° 0 mm 2 mps 752 mmHg 87%
    08:00 +27°C° 0.2 mm 2 mps 752 mmHg 86%
    09:00 +27°C° 0.2 mm 2 mps 753 mmHg 84%
    10:00 +28°C° 0.2 mm 2 mps 753 mmHg 83%
    11:00 +28°C° 0.1 mm 2 mps 752 mmHg 82%
    12:00 +28°C° 0.1 mm 2 mps 752 mmHg 80%
    13:00 +29°C° 0.1 mm 1 mps 752 mmHg 79%
    14:00 +29°C° 0.1 mm 2 mps 751 mmHg 78%
    15:00 +29°C° 0.1 mm 2 mps 751 mmHg 76%
    16:00 +30°C° 0.1 mm 2 mps 750 mmHg 75%
    17:00 +29°C° 0.1 mm 2 mps 751 mmHg 78%
    18:00 +28°C° 0.1 mm 2 mps 751 mmHg 82%
    19:00 +27°C° 0.1 mm 3 mps 752 mmHg 86%
    20:00 +27°C° 0.6 mm 2 mps 752 mmHg 87%
    21:00 +27°C° 0.6 mm 2 mps 752 mmHg 89%
    22:00 +27°C° 0.6 mm 2 mps 753 mmHg 90%
    23:00 +27°C° 0.3 mm 2 mps 752 mmHg 90%
    Show more